Location: Saint Peter Port
(49.4500°N, 2.5330°W)
Time: 16:26:27
(UTC+01:00)

Cosmos 2242 Rocket - Visible Passes

Search period start: 24 October 2014 00:00
Search period end: 02 November 2014 23:00
Orbit: 621 x 652 km, 82.5° (Epoch: 23 October)

Date Brightness Start Highest point End Pass type
(mag) Time Alt. Az. Time Alt. Az. Time Alt. Az.
24 Oct 6.4 19:15:25 10° WSW 19:18:46 20° WNW 19:22:08 10° NNW visible
25 Oct 6.8 19:40:43 10° WNW 19:42:04 11° WNW 19:43:25 10° NW visible
27 Oct 6.2 17:45:26 10° WSW 17:49:02 22° WNW 17:52:39 10° NNW visible
28 Oct 6.6 18:10:15 10° W 18:12:18 13° WNW 18:14:21 10° NW visible
31 Oct 6.5 17:40:00 10° W 17:42:31 15° WNW 17:45:04 10° NNW visible
